ECHOSTAR 25

Last updated on Tue Sep 22 2026 00:03:17 GMT+0000 (Coordinated Universal Time)

1 68126U 26045A 26264.03961537 -.00000061 00000+0 00000+0 0 9990 2 68126 0.0182 168.0589 0001680 2.3335 93.8144 1.00273048 1953
UTC large
Height (km)
Speed (km/s)
/
Latitude / Longitude
Inclination (degrees)
Orbital Period (minutes)
Azimuth
Elevation
Range (km)
Doppler Factor

Next 0 passes for location: London (51.5072 / 0.1276)

No passes found over London.
ECHOSTAR 25